Location: Aldenham
(51.6667°N, 0.3500°W)
Time: 06:17:01
(UTC+00:00)

A-11 Canister half - Pass Details

Date: 21 February 2026
Orbit: 1512 x 1687 km, 47.2° (Epoch: 8 March)

Event Time Altitude Azimuth Distance (km) Brightness Sun altitude
Rises 19:16:36 0° 209° (SSW) 4,928 12.0 -17.6°
Reaches altitude 10° 19:20:08 10° 201° (SSW) 3,945 11.3 -18.2°
Maximum altitude 19:28:52 34° 141° (SE) 2,497 9.7 -19.5°
Enters shadow 19:32:18 28° 107° (ESE) 2,766 9.7 -20.0°
Drops below altitude 10° 19:37:30 10° 81° (E) 3,904 - -20.8°
Sets 19:40:57 0° 73° (ENE) 4,872 - -21.4°
